Temperature
5 6 6 6 6 6 5 5 5 6 6 8 9 9 8 7 6 5 5 5 6 6 7 7 7 8 8 8 8 8 9 9 9 9 9 8 8 7 7 6 5 4 4 3
5 6 6 5 6 6 6 6 6 7 7 9 9 9 7 5 4 4 3 4 5 5 6 6 6 6 7 7 7 7 7 7 7 6 6 6 5 5 4 3 3 2 2 2
5 6 6 6 7 7 7 7 7 7 8 9 8 8 5 3 2 2 2 3 3 4 5 5 5 5 5 5 5 5 5 4 4 4 4 3 3 3 2 1 1 1 1 1
5 6 6 9 10 9 8 9 8 9 9 9 8 6 3 2 1 1 1 2 2 3 3 4 4 4 4 4 4 4 3 3 2 2 2 1 1 1 0 0 0 0 1 1
6 6 6 8 10 9 9 8 9 8 8 8 7 5 3 2 1 0 1 1 1 2 2 2 2 3 3 3 2 2 2 1 1 1 1 0 0 -0 -0 0 0 0 0 0
6 6 7 9 10 10 9 8 9 8 8 7 6 6 5 2 1 1 0 1 1 1 1 1 1 1 1 1 1 1 0 0 0 0 0 0 -0 -0 0 0 0 -0 -0 -1
6 6 7 8 9 9 9 9 10 9 8 7 5 5 3 2 1 1 0 0 0 0 0 0 -0 0 0 -0 -0 -0 -0 -0 -0 -0 0 0 0 -0 -0 -0 -1 -1 -1 -2
6 6 7 9 9 9 9 10 9 8 7 6 5 4 3 2 2 1 0 0 0 0 0 -0 -0 -0 -0 -0 -0 -0 -0 -0 0 -0 -0 -0 -0 -1 -1 -1 -1 -2 -2 -2
6 8 9 10 10 10 9 8 8 7 7 6 5 3 3 2 2 2 1 1 1 1 0 0 0 1 1 0 0 0 0 0 -0 -0 -1 -1 -1 -1 -1 -2 -2 -2 -3 -3
7 7 8 10 10 10 9 8 8 7 6 6 5 4 2 2 2 2 2 2 1 1 1 1 1 1 1 1 0 0 0 -0 -1 -1 -1 -1 -2 -2 -2 -2 -2 -3 -3 -4
7 8 9 10 10 10 9 8 7 7 6 5 5 4 3 2 2 2 2 2 2 2 2 2 1 1 1 1 0 0 -0 -1 -1 -1 -1 -1 -2 -2 -2 -2 -3 -3 -4 -4
7 8 8 9 10 9 9 8 7 6 5 4 4 4 3 2 2 2 2 2 3 3 2 2 1 1 0 0 0 0 -0 -1 -1 -1 -1 -2 -2 -2 -3 -3 -4 -5 -5 -6
9 9 9 9 9 9 8 8 7 6 5 4 3 3 3 3 2 2 2 3 3 3 2 2 1 0 -0 -0 -0 -0 -0 -1 -1 -1 -2 -2 -3 -3 -4 -5 -6 -6 -7 -8
8 8 8 9 9 8 8 7 6 5 4 4 3 2 2 2 2 2 2 2 2 2 2 1 0 -0 -1 -1 -1 -1 -1 -1 -2 -2 -3 -3 -3 -4 -5 -5 -6 -7 -7 -8
7 7 7 8 8 7 7 6 5 4 3 3 2 2 2 2 2 2 2 2 2 2 1 0 0 -0 -1 -1 -1 -1 -2 -2 -2 -3 -3 -4 -4 -5 -6 -6 -7 -7 -8 -8
5 6 7 7 7 6 6 5 5 4 3 3 2 2 2 2 2 2 2 2 2 1 1 0 -0 -1 -1 -2 -2 -2 -2 -2 -3 -3 -4 -4 -5 -6 -6 -7 -8 -8 -9 -9
3 4 5 5 6 6 5 5 5 4 4 3 3 2 2 2 2 2 1 1 1 1 0 -0 -1 -1 -2 -2 -2 -2 -2 -3 -3 -4 -4 -5 -6 -6 -7 -8 -8 -9 -9 -10
1 2 3 4 4 5 5 4 4 4 4 3 3 2 2 2 2 2 1 0 -0 -0 -1 -1 -1 -1 -2 -2 -2 -3 -3 -3 -4 -4 -5 -6 -6 -7 -8 -8 -9 -9 -9 -10
1 2 3 4 4 5 5 5 4 3 3 3 3 2 2 2 2 2 1 0 -0 -0 -1 -1 -2 -2 -2 -2 -3 -3 -3 -4 -4 -5 -6 -6 -7 -8 -8 -9 -9 -10 -10 -10
2 2 3 4 4 4 5 4 3 3 3 3 2 2 2 2 2 1 1 0 -0 -0 -1 -1 -2 -2 -2 -3 -3 -3 -4 -4 -5 -6 -6 -7 -8 -8 -9 -9 -10 -10 -10 -10
1 2 3 3 4 4 4 3 3 3 3 3 3 3 3 2 1 1 1 -0 -1 -1 -1 -2 -2 -2 -3 -3 -3 -4 -4 -5 -5 -6 -7 -8 -8 -9 -9 -10 -10 -10 -10 -10
1 1 2 2 2 2 2 2 2 2 2 2 2 2 2 2 1 1 0 0 -0 -1 -2 -2 -2 -3 -3 -3 -4 -4 -5 -5 -6 -7 -7 -8 -9 -9 -9 -10 -10 -10 -10 -10
1 1 1 1 1 1 1 1 1 1 2 2 2 2 2 2 2 1 0 -0 -1 -1 -2 -2 -3 -3 -3 -4 -4 -5 -5 -6 -7 -7 -8 -8 -9 -9 -10 -10 -10 -10 -10 -10
1 1 1 0 0 0 0 0 0 0 1 1 1 1 1 1 1 0 0 -0 -1 -2 -2 -3 -3 -3 -4 -4 -5 -5 -6 -6 -7 -8 -8 -9 -9 -10 -10 -10 -10 -10 -10 -10
0 0 0 -0 -1 -1 -1 -1 -1 -1 -0 -0 0 0 0 0 1 0 -0 -1 -1 -2 -2 -3 -3 -4 -4 -5 -5 -6 -6 -7 -7 -8 -9 -9 -9 -10 -10 -10 -10 -10 -10 -10
-1 -1 -1 -1 -2 -2 -2 -2 -1 -1 -1 -1 -1 -0 -0 -0 -1 -1 -1 -1 -2 -2 -3 -3 -4 -4 -4 -5 -5 -6 -7 -7 -8 -8 -9 -9 -9 -10 -10 -10 -10 -10 -9 -9
-1 -2 -2 -2 -2 -2 -3 -3 -2 -2 -2 -2 -1 -1 -1 -1 -1 -2 -2 -2 -2 -3 -3 -4 -4 -4 -5 -5 -6 -6 -7 -7 -8 -8 -9 -9 -9 -9 -9 -9 -9 -9 -9 -9
Wind_Speed
5 5 4 7 8 10 13 12 10 11 15 23 22 19 14 10 11 12 13 13 11 8 4 3 4 5 5 6 7 8 9 10 10 11 13 13 14 14 14 14 15 14 15 14
4 5 7 8 12 13 14 15 18 21 23 20 14 9 8 9 11 12 13 13 11 8 5 5 4 5 7 9 10 11 12 12 12 14 15 15 15 15 15 15 14 14 13 13
4 5 4 7 10 12 8 9 11 14 12 11 13 10 6 8 10 11 12 11 10 8 6 6 6 7 9 10 11 13 13 13 14 15 16 15 16 16 15 14 14 13 11 10
3 4 5 5 2 7 8 10 11 10 11 11 10 4 2 4 7 9 10 9 8 7 7 8 8 9 10 11 13 14 14 14 14 15 16 15 15 15 13 12 11 9 8 7
2 4 7 7 4 4 5 7 7 8 10 8 4 1 1 4 5 6 7 7 7 8 8 9 9 10 12 13 13 14 14 14 14 15 15 14 14 12 10 10 8 6 5 5
3 3 5 5 3 2 2 5 6 6 8 6 3 3 3 4 5 6 7 7 7 8 9 10 9 10 13 13 13 13 12 13 12 13 13 13 12 10 8 7 7 5 5 4
5 5 7 7 3 4 1 5 4 5 6 4 3 2 1 3 4 5 6 6 7 8 8 8 8 11 12 12 12 11 11 12 11 11 11 11 10 8 7 6 6 5 5 4
6 6 8 5 3 4 6 5 4 4 3 3 5 5 4 4 4 5 5 6 6 7 8 7 8 10 11 11 9 10 11 11 11 10 9 8 8 7 6 6 6 5 5 4
8 9 6 3 4 4 2 4 4 3 3 6 7 6 5 5 5 5 6 6 6 7 8 7 7 9 11 9 9 11 11 11 10 10 8 7 7 7 6 5 5 4 3 3
5 8 8 7 5 3 3 4 3 2 5 7 7 8 7 6 6 6 6 6 6 7 8 8 8 9 9 9 9 11 11 10 8 8 8 7 6 5 5 4 4 3 3 2
6 7 6 5 4 4 3 2 1 2 4 8 10 9 7 7 7 7 7 6 7 8 8 9 8 8 8 8 9 11 10 8 8 7 7 6 5 4 4 3 3 3 2 1
7 7 5 6 4 4 5 4 5 5 5 7 8 9 8 8 7 8 8 8 8 8 8 8 8 8 7 7 8 10 9 7 5 5 5 5 5 5 7 5 6 4 1 1
6 6 5 5 3 4 5 5 5 6 7 8 7 8 8 8 8 9 9 9 9 9 8 8 8 8 7 7 8 8 8 6 5 5 5 4 4 4 3 5 7 8 8 7
4 3 3 4 5 4 5 5 6 6 6 8 7 8 9 8 10 10 10 8 9 9 9 8 9 7 6 7 8 8 8 7 6 4 4 4 3 3 2 2 2 3 5 9
7 6 5 2 4 5 5 6 7 7 7 7 8 9 10 11 11 10 9 10 10 10 9 9 9 7 6 8 8 8 7 5 4 4 4 4 3 3 3 2 2 2 3 5
11 7 2 3 5 6 6 7 8 8 8 8 9 9 9 10 10 10 10 10 11 10 8 8 8 6 6 7 8 6 5 8 6 4 4 3 3 3 2 2 2 3 3 4
8 6 4 4 6 7 8 8 8 9 9 10 10 10 12 12 11 10 8 7 8 8 7 8 7 6 6 7 7 5 5 5 7 5 3 3 2 2 2 2 2 3 3 6
8 10 9 9 8 9 9 9 9 10 10 9 12 12 13 14 14 12 11 10 9 8 6 6 7 7 7 6 6 5 5 4 3 3 2 2 2 2 2 2 3 4 4 5
10 10 9 8 8 8 9 10 11 11 11 12 13 13 11 10 11 12 12 12 12 10 7 7 12 8 7 7 7 5 5 4 3 2 2 2 3 2 2 2 3 4 4 4
11 11 9 6 3 5 7 9 11 11 12 13 13 12 11 11 11 12 11 9 6 6 8 9 8 7 6 7 7 4 5 4 3 2 1 1 1 2 2 3 4 4 4 5
12 11 9 5 1 2 6 10 12 12 13 13 14 13 12 11 11 11 10 7 5 8 9 12 7 6 5 6 7 4 4 3 2 1 0 1 2 2 3 3 4 5 5 5
11 10 8 5 2 3 4 7 9 12 12 12 11 11 12 12 11 8 5 6 9 13 9 6 5 7 8 8 4 4 3 2 2 1 0 1 2 3 4 4 4 5 5 5
10 8 7 4 2 2 4 5 8 10 11 12 13 14 14 11 11 10 8 7 8 13 9 6 9 11 10 6 4 3 3 2 1 1 1 2 3 4 4 5 5 5 5 6
9 9 7 5 2 2 3 3 5 6 7 8 8 10 10 9 6 4 5 14 16 14 7 10 13 11 9 4 4 3 2 1 1 2 3 3 3 4 4 5 5 6 6 7
8 7 6 5 2 1 2 4 6 7 8 7 7 8 7 6 6 7 8 11 16 14 7 10 13 10 6 4 3 3 2 2 3 4 3 3 4 5 5 5 5 6 6 7
7 6 5 4 3 2 3 4 5 6 7 7 7 7 6 6 8 9 8 9 11 12 8 5 6 6 4 4 3 3 2 3 3 3 3 4 5 5 5 6 7 7 7 7
6 5 4 3 2 2 3 4 5 6 7 8 8 7 8 8 8 9 9 9 8 7 6 5 5 4 4 3 3 2 2 3 3 4 4 5 5 5 6 7 6 7 6 7
Wind_Direction
242 240 213 218 219 204 207 216 234 256 269 283 294 302 308 318 323 326 331 333 328 315 309 338 356 12 34 45 52 68 83 91 98 103 107 110 112 113 113 113 113 112 110 105
291 266 231 241 238 227 230 234 244 262 275 279 287 299 315 332 334 332 334 337 339 344 10 25 28 42 58 64 66 74 81 86 92 98 99 99 101 101 100 100 102 102 102 102
286 307 326 264 233 210 209 216 223 248 258 286 305 314 327 338 338 336 336 342 353 6 23 41 52 68 74 77 80 83 87 88 90 93 94 95 96 95 95 94 93 93 95 99
287 329 257 247 243 188 215 241 229 246 267 287 296 301 67 7 343 343 350 356 6 23 42 50 61 73 79 82 86 88 89 91 92 94 95 94 94 94 93 94 95 98 101 107
260 283 279 282 246 200 226 273 237 241 271 289 309 212 165 27 11 3 9 20 29 42 56 62 67 77 84 83 86 89 90 91 93 97 98 98 97 97 97 100 99 100 110 126
229 267 260 260 250 151 140 280 246 236 267 288 325 313 313 32 30 31 36 41 48 54 63 67 69 80 86 85 87 88 92 94 96 99 102 103 103 100 98 101 107 114 112 118
222 248 269 258 245 127 220 268 266 240 255 255 217 207 113 74 60 57 56 58 62 66 68 70 76 86 88 88 88 91 94 95 93 94 98 100 99 99 104 105 103 97 91 74
196 219 253 254 157 198 240 279 281 259 230 178 145 127 120 106 92 85 80 74 74 75 72 69 80 92 93 90 92 94 94 93 92 92 95 99 99 95 95 99 93 85 83 68
201 221 243 248 229 258 267 274 276 249 189 148 146 152 139 125 114 107 104 97 91 90 85 79 83 96 100 99 102 101 96 93 91 88 86 92 98 98 90 87 92 88 89 82
247 259 262 263 251 245 243 255 272 231 174 160 155 152 145 135 125 118 111 108 107 102 97 90 88 92 100 104 102 100 97 93 92 91 86 77 79 88 95 99 101 102 99 79
259 277 293 273 227 222 218 208 180 134 153 158 150 151 148 140 134 124 117 111 108 108 106 101 97 93 95 100 105 101 96 92 86 84 87 81 76 84 102 112 132 123 135 152
239 245 242 265 243 199 198 200 179 150 136 147 153 150 142 138 134 130 124 118 113 110 108 103 98 93 89 94 105 108 103 93 90 89 84 81 79 61 61 68 65 68 103 293
257 272 251 260 236 191 188 183 169 159 154 148 145 144 139 135 134 131 127 127 125 120 114 108 102 96 93 95 98 102 108 104 93 89 87 84 82 83 60 35 42 39 27 7
296 297 270 244 226 183 155 138 127 121 131 138 138 138 136 133 136 136 135 130 123 117 112 109 104 98 97 100 100 98 99 104 104 99 99 97 94 90 85 64 24 359 2 2
335 312 272 236 143 138 134 131 133 138 139 137 140 144 145 145 144 139 133 127 121 115 113 112 109 105 103 104 105 106 106 106 105 103 97 93 90 88 76 62 37 352 333 343
318 316 275 192 181 170 161 163 167 167 161 154 152 149 144 138 134 132 132 135 136 133 129 123 119 121 116 112 111 108 114 124 118 108 97 90 83 79 65 41 13 351 335 324
310 298 275 248 219 207 199 191 182 174 167 163 155 144 137 134 132 132 128 119 119 122 126 129 129 127 123 122 120 118 110 115 113 102 96 95 86 68 43 13 349 334 320 321
285 276 267 255 239 221 208 193 180 174 169 158 148 149 152 154 153 148 138 127 118 110 113 124 129 125 124 126 124 123 118 113 113 112 101 88 85 58 26 354 337 327 314 320
316 303 287 262 236 214 199 186 176 168 158 156 159 162 159 152 149 147 145 144 145 146 154 153 142 131 129 136 129 117 117 115 107 96 72 54 58 21 353 333 322 314 313 318
333 330 324 305 239 190 180 168 160 159 160 160 159 155 154 153 152 152 152 155 162 156 151 148 137 131 130 135 127 115 118 120 118 105 77 42 9 338 328 324 321 314 312 312
339 339 341 346 0 150 157 157 159 162 163 165 167 167 162 157 157 157 157 156 156 147 151 150 143 140 138 136 125 119 120 122 123 117 58 343 324 316 316 317 316 314 310 310
339 341 346 1 47 96 131 149 157 160 163 165 161 156 156 159 161 158 155 158 158 159 151 146 147 154 152 136 122 128 130 134 140 154 279 304 303 302 301 300 297 298 297 297
340 342 347 355 30 109 123 143 157 163 167 168 168 169 171 169 169 166 165 158 157 161 153 158 165 158 147 132 133 137 145 158 186 234 268 279 281 281 283 288 287 289 291 293
341 343 343 347 24 115 144 151 149 152 154 157 164 166 163 159 157 151 142 160 166 159 157 167 163 157 147 137 141 150 168 198 238 264 271 275 276 277 278 281 285 286 285 288
332 333 339 344 342 240 165 141 134 139 144 148 150 152 153 152 154 155 153 159 163 156 156 166 162 155 144 143 156 172 197 230 240 249 255 268 273 275 275 275 276 281 284 283
326 326 322 310 290 237 180 163 162 161 157 156 155 152 143 134 138 147 150 151 154 156 150 137 141 147 145 156 172 196 223 263 297 295 273 273 272 273 274 276 279 278 279 280
318 316 314 315 305 242 200 184 177 176 173 169 163 161 155 151 151 152 149 148 147 147 145 142 141 146 156 170 194 218 240 256 266 271 272 269 268 268 272 275 277 279 279 280
Height
1479 1476 1477 1478 1478 1479 1482 1482 1482 1470 1461 1448 1443 1440 1436 1433 1429 1424 1420 1415 1410 1406 1404 1403 1403 1402 1400 1399 1398 1398 1399 1400 1402 1405 1408 1413 1417 1421 1425 1430 1435 1440 1445 1451
1476 1472 1473 1475 1471 1471 1472 1471 1468 1463 1455 1443 1440 1437 1434 1431 1428 1424 1419 1415 1410 1406 1404 1403 1402 1401 1400 1399 1399 1399 1400 1401 1403 1405 1409 1413 1417 1421 1425 1431 1436 1442 1447 1452
1478 1472 1471 1470 1458 1459 1461 1457 1457 1455 1447 1439 1437 1434 1432 1430 1427 1424 1419 1415 1411 1408 1406 1404 1403 1402 1402 1402 1402 1402 1403 1403 1405 1408 1411 1415 1419 1423 1429 1434 1440 1445 1450 1455
1475 1473 1472 1455 1446 1448 1450 1447 1445 1443 1440 1437 1435 1433 1431 1430 1427 1423 1419 1415 1413 1410 1408 1407 1406 1405 1405 1405 1405 1406 1407 1408 1410 1412 1415 1419 1423 1428 1434 1439 1445 1449 1452 1455
1473 1471 1466 1452 1445 1444 1446 1444 1439 1439 1436 1434 1433 1431 1430 1428 1425 1423 1420 1417 1414 1412 1411 1410 1409 1408 1408 1408 1409 1409 1411 1412 1415 1417 1420 1424 1429 1434 1439 1443 1447 1451 1453 1455
1471 1468 1463 1449 1442 1441 1445 1443 1435 1435 1433 1432 1431 1431 1430 1427 1425 1422 1420 1418 1416 1415 1413 1412 1412 1412 1411 1412 1413 1414 1415 1417 1420 1423 1426 1430 1434 1439 1443 1446 1449 1451 1453 1455
1467 1466 1457 1444 1440 1442 1447 1441 1433 1432 1430 1430 1429 1430 1429 1427 1425 1423 1422 1420 1419 1418 1416 1416 1416 1416 1416 1416 1417 1419 1421 1423 1426 1429 1432 1436 1439 1443 1446 1448 1450 1452 1454 1454
1462 1462 1456 1438 1439 1441 1438 1432 1430 1429 1428 1427 1427 1427 1427 1427 1426 1425 1424 1422 1422 1421 1420 1420 1420 1420 1420 1421 1423 1425 1427 1429 1432 1435 1438 1441 1444 1446 1448 1450 1452 1453 1453 1453
1452 1448 1438 1435 1435 1434 1432 1430 1428 1426 1425 1425 1425 1426 1427 1427 1427 1427 1426 1426 1425 1425 1424 1424 1425 1426 1426 1427 1429 1431 1433 1435 1438 1440 1443 1445 1447 1449 1450 1452 1452 1452 1452 1452
1444 1438 1434 1433 1431 1431 1430 1428 1426 1424 1424 1423 1424 1425 1426 1427 1428 1428 1429 1429 1429 1429 1429 1429 1430 1431 1432 1433 1435 1437 1439 1441 1443 1445 1447 1448 1450 1451 1452 1452 1452 1451 1451 1449
1439 1435 1432 1429 1429 1428 1427 1425 1424 1423 1422 1422 1423 1424 1426 1427 1429 1430 1431 1432 1433 1433 1433 1434 1435 1436 1438 1439 1441 1442 1444 1445 1447 1448 1450 1450 1451 1452 1451 1451 1451 1450 1448 1447
1436 1431 1431 1428 1427 1426 1424 1423 1422 1421 1421 1422 1423 1424 1425 1427 1429 1431 1432 1434 1435 1437 1437 1438 1440 1441 1442 1444 1446 1447 1448 1449 1450 1451 1452 1452 1452 1452 1451 1450 1449 1447 1446 1444
1430 1428 1427 1425 1424 1423 1422 1421 1420 1420 1420 1420 1422 1424 1425 1427 1429 1432 1434 1436 1437 1439 1441 1442 1443 1445 1446 1448 1450 1451 1451 1452 1452 1453 1453 1452 1452 1451 1450 1449 1447 1445 1443 1441
1427 1426 1424 1422 1422 1421 1420 1419 1419 1419 1419 1420 1421 1423 1425 1427 1430 1432 1434 1437 1439 1441 1443 1445 1446 1448 1449 1451 1452 1453 1453 1453 1453 1453 1453 1452 1451 1450 1448 1446 1445 1443 1441 1439
1424 1423 1422 1420 1419 1418 1418 1417 1417 1417 1418 1419 1421 1423 1425 1427 1429 1432 1435 1438 1441 1443 1445 1447 1448 1450 1451 1452 1453 1454 1454 1454 1453 1453 1452 1451 1449 1448 1446 1444 1442 1440 1438 1436
1421 1419 1418 1417 1416 1416 1415 1415 1415 1416 1417 1418 1420 1422 1425 1428 1430 1433 1436 1439 1442 1444 1446 1448 1450 1451 1452 1453 1454 1454 1454 1454 1453 1452 1451 1449 1447 1446 1444 1441 1439 1437 1435 1433
1419 1416 1415 1414 1414 1413 1413 1413 1414 1415 1416 1417 1419 1422 1424 1427 1430 1433 1437 1440 1444 1446 1448 1449 1451 1452 1453 1454 1454 1454 1454 1453 1452 1450 1449 1447 1445 1443 1441 1439 1437 1435 1432 1430
1416 1413 1412 1411 1410 1410 1410 1411 1412 1413 1414 1416 1419 1422 1424 1427 1429 1433 1437 1440 1443 1446 1448 1450 1451 1452 1453 1453 1454 1453 1453 1452 1450 1449 1447 1445 1443 1441 1439 1436 1434 1432 1430 1428
1411 1408 1407 1406 1406 1406 1407 1407 1409 1411 1413 1415 1418 1421 1424 1427 1431 1434 1437 1440 1442 1445 1447 1449 1451 1452 1452 1453 1453 1452 1451 1450 1448 1447 1445 1443 1440 1438 1436 1434 1432 1429 1427 1425
1408 1405 1403 1402 1402 1403 1403 1404 1406 1408 1411 1414 1417 1420 1424 1427 1431 1434 1437 1440 1443 1445 1447 1448 1450 1451 1452 1452 1451 1451 1449 1448 1446 1444 1442 1440 1438 1436 1433 1431 1429 1427 1425 1422
1406 1404 1402 1401 1400 1400 1401 1402 1404 1406 1409 1412 1416 1419 1423 1427 1430 1433 1436 1439 1442 1444 1446 1448 1449 1450 1450 1450 1450 1449 1447 1446 1444 1442 1440 1437 1435 1433 1431 1428 1426 1424 1422 1420
1406 1404 1402 1401 1400 1400 1401 1402 1403 1405 1408 1411 1415 1419 1422 1426 1429 1433 1436 1439 1441 1443 1445 1446 1448 1448 1449 1448 1448 1446 1445 1443 1441 1439 1437 1435 1433 1430 1428 1426 1423 1421 1419 1417
1407 1404 1402 1401 1401 1400 1401 1401 1403 1405 1407 1410 1413 1417 1421 1424 1427 1430 1433 1437 1440 1442 1444 1445 1446 1446 1447 1446 1445 1444 1442 1440 1438 1436 1434 1432 1430 1428 1425 1423 1421 1419 1417 1415
1407 1405 1403 1402 1401 1400 1400 1401 1402 1404 1406 1409 1413 1416 1420 1423 1426 1430 1433 1436 1438 1440 1442 1443 1444 1444 1444 1444 1443 1441 1439 1438 1436 1434 1431 1429 1427 1425 1423 1420 1418 1416 1414 1412
1406 1404 1403 1401 1400 1400 1400 1401 1401 1403 1405 1407 1411 1414 1418 1422 1425 1428 1431 1434 1436 1438 1439 1441 1441 1442 1442 1441 1440 1438 1437 1435 1433 1431 1429 1426 1424 1422 1420 1418 1415 1413 1411 1409
1405 1403 1402 1400 1400 1399 1399 1399 1400 1401 1403 1405 1408 1411 1415 1419 1423 1427 1429 1432 1434 1436 1437 1438 1439 1439 1439 1438 1437 1435 1434 1432 1430 1428 1426 1424 1421 1419 1417 1415 1413 1411 1409 1407
1403 1402 1400 1399 1398 1398 1397 1397 1398 1399 1400 1403 1405 1409 1412 1416 1420 1423 1426 1429 1431 1433 1435 1436 1436 1437 1436 1435 1434 1432 1431 1429 1427 1425 1423 1421 1419 1417 1415 1413 1410 1408 1406 1404